Date String (YYYY-MM-DD hh:mm:ss) UTC,Instrument flags,absolute air pressure of the measurement (hPa),sample flow rate (lpm),inlet stack bypass flow (lpm),air temperature of the measurement (°C),ambient temperature measured by the external sensor (°C),aerosol sample conditioner tube jacket temperature (°C),OPC LED temperature (°C),internal box temperature (°C),relative humidity of the measurement (%),span deviation,mass concentration of particles derived from Lorenz-Mie calculation of OPC scattering (μg/m³),mass concentration of particles derived from Lorenz-Mie calculation of OPC scattering (μg/m³),mass concentration of particles derived from Lorenz-Mie calculation of OPC scattering (μg/m³)
DateTimeUTC,F1_M11,P_M11,Q1_M11,Q2_M11,T1_M11,T2_M11,T3_M11,T4_M11,T5_M11,U1_M11,ZSPAN_M11,X0_M11,X2_M11,X1_M11
2023-12-16 02:00:00,SystemResetWarning,0836.2,5.01,000.00,022.7,021.5,000.0,031.1,024.0,11.0,0000.0,0003.17,0001.83,0001.37
2023-12-16 02:01:00,SystemResetWarning,0836.1,5.00,000.00,022.7,021.5,000.0,031.1,024.0,10.9,0000.0,0003.15,0001.81,0001.34
2023-12-16 02:02:00,SystemResetWarning,0836.1,4.99,000.00,022.7,021.5,000.0,031.1,024.0,10.8,0000.0,0003.10,0001.81,0001.33
2023-12-16 02:03:00,SystemResetWarning,0836.1,5.00,000.00,022.7,021.4,000.0,031.1,024.0,10.7,0000.0,0002.99,0001.79,0001.33
2023-12-16 02:04:00,SystemResetWarning,0836.0,5.00,000.00,022.6,021.4,000.0,031.1,024.0,10.7,0000.0,0003.14,0001.76,0001.33
2023-12-16 02:05:00,SystemResetWarning,0835.9,5.00,000.00,022.6,021.4,000.0,031.0,023.9,10.8,0000.0,0003.63,0001.73,0001.33
2023-12-16 02:06:00,SystemResetWarning,0835.9,4.99,000.00,022.6,021.4,000.0,031.0,023.9,10.8,0000.0,0003.71,0001.74,0001.33
2023-12-16 02:07:00,SystemResetWarning,0835.9,5.00,000.00,022.6,021.4,000.0,031.0,023.9,10.7,0000.0,0003.56,0001.71,0001.31
2023-12-16 02:08:00,SystemResetWarning,0835.8,5.00,000.00,022.6,021.4,000.0,031.0,023.9,10.8,0000.0,0003.50,0001.69,0001.29
2023-12-16 02:09:00,SystemResetWarning,0835.8,5.01,000.00,022.5,021.3,000.0,031.0,023.9,10.8,0000.0,0003.54,0001.69,0001.28
2023-12-16 02:10:00,SystemResetWarning,0835.8,5.00,000.00,022.5,021.3,000.0,031.0,023.8,10.7,0000.0,0003.42,0001.65,0001.26
2023-12-16 02:11:00,SystemResetWarning,0835.8,5.01,000.00,022.5,021.3,000.0,031.0,023.8,10.8,0000.0,0003.68,0001.64,0001.26
2023-12-16 02:12:00,SystemResetWarning,0835.8,5.00,000.00,022.5,021.2,000.0,031.0,023.8,10.7,0000.0,0003.75,0001.64,0001.25
2023-12-16 02:13:00,SystemResetWarning,0835.8,5.01,000.00,022.5,021.2,000.0,030.9,023.8,10.8,0000.0,0003.70,0001.62,0001.25
2023-12-16 02:14:00,SystemResetWarning,0835.8,4.99,000.00,022.5,021.2,000.0,030.9,023.8,10.9,0000.0,0003.56,0001.56,0001.23
2023-12-16 02:15:00,SystemResetWarning,0835.6,5.00,000.00,022.4,021.2,000.0,030.9,023.7,10.6,0000.0,0003.34,0001.55,0001.22
2023-12-16 02:16:00,SystemResetWarning,0835.6,4.99,000.00,022.4,021.2,000.0,030.9,023.7,10.6,0000.0,0002.83,0001.58,0001.23
2023-12-16 02:17:00,SystemResetWarning,0835.6,4.99,000.00,022.4,021.2,000.0,030.9,023.7,10.6,0000.0,0002.79,0001.58,0001.23
2023-12-16 02:18:00,SystemResetWarning,0835.5,4.99,000.00,022.4,021.2,000.0,030.9,023.7,10.4,0000.0,0002.62,0001.55,0001.23
2023-12-16 02:19:00,SystemResetWarning,0835.6,5.01,000.00,022.4,021.1,000.0,030.9,023.7,10.3,0000.0,0002.60,0001.56,0001.24
2023-12-16 02:20:00,SystemResetWarning,0835.6,5.01,000.00,022.4,021.1,000.0,030.8,023.7,10.1,0000.0,0002.75,0001.58,0001.25
2023-12-16 02:21:00,SystemResetWarning,0835.6,5.00,000.00,022.4,021.1,000.0,030.8,023.7,10.1,0000.0,0002.86,0001.60,0001.26
2023-12-16 02:22:00,SystemResetWarning,0835.6,4.99,000.00,022.3,021.1,000.0,030.8,023.7,10.0,0000.0,0002.61,0001.59,0001.26
2023-12-16 02:23:00,SystemResetWarning,0835.6,4.99,000.00,022.3,021.1,000.0,030.8,023.7,10.0,0000.0,0002.52,0001.61,0001.26
2023-12-16 02:24:00,SystemResetWarning,0835.7,5.01,000.00,022.3,021.1,000.0,030.8,023.7,10.0,0000.0,0002.45,0001.57,0001.25
2023-12-16 02:25:00,SystemResetWarning,0835.7,5.01,000.00,022.3,021.1,000.0,030.8,023.6,10.0,0000.0,0002.45,0001.56,0001.24
2023-12-16 02:26:00,SystemResetWarning,0835.8,5.00,000.00,022.3,021.1,000.0,030.8,023.6,9.9,0000.0,0002.39,0001.52,0001.23
2023-12-16 02:27:00,SystemResetWarning,0835.8,5.00,000.00,022.3,021.0,000.0,030.7,023.6,9.9,0000.0,0002.31,0001.49,0001.21
2023-12-16 02:28:00,SystemResetWarning,0835.9,5.00,000.00,022.3,021.0,000.0,030.7,023.6,10.2,0000.0,0002.20,0001.45,0001.20
2023-12-16 02:29:00,SystemResetWarning,0835.9,4.99,000.00,022.3,021.0,000.0,030.7,023.6,10.5,0000.0,0003.11,0001.46,0001.19
2023-12-16 02:30:00,SystemResetWarning,0835.9,5.00,000.00,022.3,021.0,000.0,030.7,023.6,10.6,0000.0,0003.11,0001.45,0001.17
2023-12-16 02:31:00,SystemResetWarning,0835.9,5.00,000.00,022.2,021.0,000.0,030.7,023.6,10.5,0000.0,0003.02,0001.43,0001.15
2023-12-16 02:32:00,SystemResetWarning,0835.9,5.01,000.00,022.2,021.0,000.0,030.7,023.6,10.5,0000.0,0002.97,0001.44,0001.15
2023-12-16 02:33:00,SystemResetWarning,0836.0,5.01,000.00,022.2,021.0,000.0,030.7,023.6,10.4,0000.0,0003.00,0001.45,0001.16
2023-12-16 02:34:00,SystemResetWarning,0835.9,5.00,000.00,022.2,021.0,000.0,030.7,023.6,10.4,0000.0,0003.01,0001.45,0001.17
2023-12-16 02:35:00,SystemResetWarning,0835.9,5.00,000.00,022.2,021.0,000.0,030.6,023.5,10.4,0000.0,0003.04,0001.47,0001.19
2023-12-16 02:36:00,SystemResetWarning,0836.0,5.00,000.00,022.2,021.0,000.0,030.6,023.5,10.3,0000.0,0003.09,0001.50,0001.21
2023-12-16 02:37:00,SystemResetWarning,0836.0,4.99,000.00,022.2,021.0,000.0,030.6,023.5,10.3,0000.0,0003.22,0001.56,0001.23
2023-12-16 02:38:00,SystemResetWarning,0836.0,5.00,000.00,022.2,021.0,000.0,030.6,023.5,10.3,0000.0,0003.22,0001.56,0001.23
2023-12-16 02:39:00,SystemResetWarning,0836.1,5.01,000.00,022.1,020.9,000.0,030.6,023.4,10.3,0000.0,0003.26,0001.56,0001.23
2023-12-16 02:40:00,SystemResetWarning,0836.1,5.00,000.00,022.1,020.9,000.0,030.6,023.4,10.2,0000.0,0002.61,0001.56,0001.24
2023-12-16 02:41:00,SystemResetWarning,0836.1,5.00,000.00,022.1,020.9,000.0,030.6,023.5,10.3,0000.0,0002.40,0001.58,0001.27
2023-12-16 02:42:00,SystemResetWarning,0836.1,5.00,000.00,022.1,020.9,000.0,030.6,023.4,10.3,0000.0,0002.54,0001.63,0001.28
2023-12-16 02:43:00,SystemResetWarning,0836.1,5.00,000.00,022.1,020.9,000.0,030.5,023.4,10.4,0000.0,0002.55,0001.61,0001.27
2023-12-16 02:44:00,SystemResetWarning,0836.1,5.00,000.00,022.1,020.8,000.0,030.5,023.4,10.4,0000.0,0002.53,0001.60,0001.24
2023-12-16 02:45:00,SystemResetWarning,0836.1,5.00,000.00,022.1,020.8,000.0,030.5,023.4,10.4,0000.0,0002.55,0001.55,0001.21
2023-12-16 02:46:00,SystemResetWarning,0836.1,5.00,000.00,022.1,020.8,000.0,030.5,023.4,10.6,0000.0,0002.73,0001.52,0001.19
2023-12-16 02:47:00,SystemResetWarning,0836.1,5.01,000.00,022.0,020.8,000.0,030.5,023.4,10.8,0000.0,0002.74,0001.52,0001.19
2023-12-16 02:48:00,SystemResetWarning,0836.1,4.99,000.00,022.0,020.8,000.0,030.5,023.4,11.1,0000.0,0002.63,0001.47,0001.17
2023-12-16 02:49:00,SystemResetWarning,0836.1,5.00,000.00,022.0,020.8,000.0,030.5,023.3,10.7,0000.0,0002.64,0001.46,0001.18
2023-12-16 02:50:00,SystemResetWarning,0836.1,5.00,000.00,022.0,020.7,000.0,030.4,023.3,10.6,0000.0,0002.74,0001.48,0001.17
2023-12-16 02:51:00,SystemResetWarning,0836.1,5.00,000.00,022.0,020.7,000.0,030.4,023.3,10.4,0000.0,0003.01,0001.50,0001.17
2023-12-16 02:52:00,SystemResetWarning,0836.1,5.00,000.00,022.0,020.7,000.0,030.4,023.3,10.4,0000.0,0003.64,0001.54,0001.16
2023-12-16 02:53:00,SystemResetWarning,0836.1,5.00,000.00,021.9,020.7,000.0,030.4,023.3,10.6,0000.0,0003.46,0001.48,0001.15
2023-12-16 02:54:00,SystemResetWarning,0836.1,5.00,000.00,021.9,020.7,000.0,030.4,023.3,10.8,0000.0,0003.30,0001.44,0001.16
2023-12-16 02:55:00,SystemResetWarning,0836.1,5.00,000.00,021.9,020.6,000.0,030.4,023.2,10.9,0000.0,0003.25,0001.42,0001.17
2023-12-16 02:56:00,SystemResetWarning,0836.1,5.00,000.00,021.9,020.6,000.0,030.4,023.2,10.9,0000.0,0003.08,0001.42,0001.17
2023-12-16 02:57:00,SystemResetWarning,0836.1,5.00,000.00,021.9,020.6,000.0,030.4,023.2,10.7,0000.0,0002.80,0001.40,0001.17
2023-12-16 02:58:00,SystemResetWarning,0836.1,5.00,000.00,021.9,020.6,000.0,030.3,023.2,10.5,0000.0,0003.13,0001.41,0001.17
2023-12-16 02:59:00,SystemResetWarning,0836.1,5.00,000.00,021.8,020.6,000.0,030.3,023.2,10.5,0000.0,0003.23,0001.41,0001.17
